Weather History for KMNN - January, 2014

Change the Weather History Date:

Monday, January 27, 2014

  Actual Average (KDLZ) Record (KDLZ)
Temperature  
Mean Temperature 15 °F -  
Max Temperature 36 °F 33 °F 61 °F (1974)
Min Temperature -7 °F 15 °F -9 °F (1936)
Degree Days  
Heating Degree Days 50    
Moisture  
Dew Point 5 °F    
Average Humidity 71    
Maximum Humidity 88    
Minimum Humidity 50    
Precipitation  
Precipitation 0.00 in - - ()
Sea Level Pressure  
Sea Level Pressure 29.92 in    
Wind  
Wind Speed 20 mph (West)    
Max Wind Speed 29 mph    
Max Gust Speed 44 mph    
Visibility 7 miles    
Events Fog , Snow    
Averages and records for this station are not official NWS values.
T = Trace of Precipitation, MM = Missing Value Source: NWS Daily Summary

Daily Weather History Graph

Daily Weather History Graph

Search for Another Location

Airport or City:

Trip Planner

Search our weather history database for the weather conditions in past years. The results will help you decide how hot, cold, wet, or windy it might be!

Date:

Astronomy

Jan. 27, 2014 Rise Set
Actual Time 7:46 AM EST 5:44 PM EST
Civil Twilight 7:17 AM EST 6:13 PM EST
Nautical Twilight 6:44 AM EST 6:46 PM EST
Astronomical Twilight 6:11 AM EST 7:18 PM EST
Moon 4:26 AM EST (1/27) 2:28 PM EST (1/27)
Length of Visible Light 10h 56m
Length of Day
9h 57m
Waning Crescent, 15% of the Moon is Illuminated
Jan 27
Waning Crescent
Jan 30
New
Feb 6
First Quarter
Feb 14
Full
Feb 22
Last Quarter

Hourly Weather History & Observations

Time (EST) Temp. Windchill Dew Point Humidity Pressure Visibility Wind Dir Wind Speed Gust Speed Precip Events Conditions
12:53 AM 36.0 °F 26.3 °F 27.0 °F 70% 29.48 in 10.0 mi SSW 16.1 mph - N/A   Overcast
1:13 AM 36.0 °F 23.5 °F 28.0 °F 73% 29.50 in 4.0 mi NW 27.6 mph 39.1 mph 0.00 in Snow Light Snow
1:19 AM 32.0 °F 18.4 °F 28.0 °F 85% 29.51 in 1.8 mi WNW 26.5 mph 39.1 mph 0.00 in Snow Light Snow
1:26 AM 30.9 °F 18.1 °F 27.0 °F 85% 29.52 in 1.2 mi WNW 21.9 mph 36.8 mph 0.00 in Snow Light Snow
1:30 AM 30.0 °F 16.3 °F 27.0 °F 88% 29.53 in 0.8 mi WNW 24.2 mph 38.0 mph 0.00 in Snow Light Snow
1:41 AM 26.1 °F 10.4 °F 23.0 °F 88% 29.55 in 0.5 mi WNW 26.5 mph 40.3 mph 0.00 in Fog , Snow Light Snow
1:44 AM 26.1 °F 10.7 °F 23.0 °F 88% 29.56 in 0.8 mi WNW 25.3 mph 40.3 mph 0.00 in Snow Light Snow
1:47 AM 26.6 °F 13.1 °F 21.2 °F 80% 29.57 in 1.0 mi WNW 19.6 mph 39.1 mph 0.00 in Snow Light Snow
1:50 AM 24.8 °F 10.0 °F 21.2 °F 86% 29.57 in 1.2 mi WNW 21.9 mph 34.5 mph 0.00 in Snow Light Snow
1:53 AM 25.0 °F 9.5 °F 21.0 °F 85% 29.62 in 1.2 mi WNW 24.2 mph 34.5 mph 0.00 in Snow Light Snow
2:00 AM 24.1 °F 7.7 °F 19.9 °F 84% 29.58 in 1.2 mi WNW 26.5 mph 38.0 mph 0.00 in Snow Light Snow
2:17 AM 24.1 °F 8.3 °F 19.9 °F 84% 29.60 in 0.8 mi West 24.2 mph 34.5 mph 0.00 in Snow Light Snow
2:21 AM 23.0 °F 6.6 °F 18.0 °F 81% 29.60 in 1.2 mi West 25.3 mph 35.7 mph 0.00 in Snow Light Snow
2:25 AM 23.0 °F 6.9 °F 16.0 °F 74% 29.60 in 3.0 mi West 24.2 mph 35.7 mph 0.00 in Snow Light Snow
2:53 AM 21.9 °F 5.5 °F 10.9 °F 63% 29.68 in 9.0 mi West 24.2 mph 35.7 mph 0.00 in   Overcast
3:53 AM 18.0 °F -1.1 °F 1.9 °F 50% 29.75 in 8.0 mi WNW 28.8 mph 43.7 mph N/A   Overcast
4:29 AM 14.0 °F -6.2 °F 3.9 °F 64% 29.76 in 2.5 mi WNW 27.6 mph 39.1 mph 0.00 in   Overcast
4:39 AM 14.0 °F -4.3 °F 3.9 °F 64% 29.76 in 4.0 mi WNW 21.9 mph 34.5 mph 0.00 in   Haze
4:53 AM 14.0 °F -5.1 °F 3.9 °F 64% 29.83 in 4.0 mi WNW 24.2 mph 35.7 mph 0.00 in   Haze
5:53 AM 10.9 °F -8.8 °F 1.0 °F 64% 29.91 in 6.0 mi WNW 23.0 mph 31.1 mph N/A   Haze
6:53 AM 8.1 °F -9.6 °F -0.0 °F 70% 29.96 in 10.0 mi WNW 16.1 mph - N/A   Clear
7:53 AM 6.1 °F -12.2 °F -2.0 °F 69% 30.03 in 10.0 mi West 16.1 mph 27.6 mph N/A   Scattered Clouds
8:53 AM 5.0 °F -13.0 °F -2.9 °F 70% 30.07 in 10.0 mi West 15.0 mph - N/A   Clear
9:53 AM 3.9 °F -13.0 °F -4.0 °F 70% 30.12 in 10.0 mi West 12.7 mph 24.2 mph N/A   Clear
10:53 AM 3.9 °F -15.6 °F -4.0 °F 70% 30.16 in 10.0 mi West 17.3 mph 23.0 mph N/A   Clear
11:53 AM 5.0 °F -11.6 °F -4.0 °F 66% 30.17 in 10.0 mi West 12.7 mph 21.9 mph N/A   Clear
12:53 PM 6.1 °F -13.3 °F -2.9 °F 67% 30.16 in 10.0 mi West 18.4 mph 24.2 mph N/A   Clear
1:53 PM 6.1 °F -8.7 °F -2.9 °F 67% 30.17 in 10.0 mi West 10.4 mph 20.7 mph N/A   Clear
2:53 PM 6.1 °F -12.2 °F -4.0 °F 63% 30.18 in 10.0 mi West 16.1 mph - N/A   Partly Cloudy
3:53 PM 5.0 °F -13.6 °F -5.1 °F 63% 30.21 in 10.0 mi West 16.1 mph - N/A   Mostly Cloudy
4:01 PM 5.0 °F -13.0 °F -5.1 °F 63% 30.14 in 10.0 mi West 15.0 mph - N/A   Scattered Clouds
4:14 PM 3.9 °F -13.7 °F -5.1 °F 66% 30.15 in 10.0 mi West 13.8 mph - N/A   Mostly Cloudy
4:32 PM 3.9 °F -12.2 °F -7.1 °F 60% 30.16 in 10.0 mi West 11.5 mph - N/A   Scattered Clouds
4:53 PM 3.9 °F -15.0 °F -8.0 °F 58% 30.24 in 10.0 mi West 16.1 mph - N/A   Clear
5:53 PM 1.0 °F -15.8 °F -9.0 °F 63% 30.25 in 10.0 mi West 11.5 mph 21.9 mph N/A   Clear
6:53 PM -0.9 °F -18.3 °F -11.0 °F 62% 30.30 in 10.0 mi West 11.5 mph - N/A   Clear
7:53 PM -2.0 °F -18.7 °F -11.0 °F 66% 30.34 in 10.0 mi West 10.4 mph - N/A   Clear
8:53 PM -2.9 °F -20.8 °F -11.0 °F 68% 30.36 in 10.0 mi West 11.5 mph - N/A   Clear
9:53 PM -5.1 °F -20.4 °F -13.0 °F 69% 30.39 in 10.0 mi West 8.1 mph - N/A   Clear
10:53 PM -6.0 °F -22.6 °F -14.1 °F 68% 30.42 in 10.0 mi West 9.2 mph - N/A   Clear
11:53 PM -7.1 °F -22.8 °F -14.1 °F 72% 30.43 in 10.0 mi West 8.1 mph - N/A   Clear